LiveATC.Net - Listen to live air traffic control over the Internet!


ICAO: ROAH  IATA: OKA   Airport: Naha Airport
City: Okinawa
Country: Japan   Continent: Asia
ROAH METAR Weather: ROAH 040230Z 20008KT 9999 FEW015 SCT160 BKN/// 30/27 Q1011 RMK 1CU015 3AC160 A2985
ROAH Flight Activity (FlightAware)

ROAH Gnd/Twr/App
Feed Status: UP   Listeners: 3
Listen in your browser - HTML5 player (in browser, HTML5)
Click here to listen with your own player (launches your MP3 player)
Archive Access: ROAH Gnd/Twr/App

ROAH Naha ACC
Feed Status: UP   Listeners: 1
Listen in your browser - HTML5 player (in browser, HTML5)
Click here to listen with your own player (launches your MP3 player)
Archive Access: ROAH Naha ACC

NOTICE

Unauthorized use prohibited. See LiveATC.net Terms of Service


Airport/ARTCC Code
Frequency Search
(e.g., 124.400, 128.75)
Site-wide search
 


Browse Feeds
Top 50 Feeds
Coverage Map
Bad Weather Areas

LiveATC FAQ
Offer LiveATC feed
Contact LiveATC.net
Press Inquiries

LiveATC on iPhone
LiveATC on Android

Windows Phone
Windows 8/10

LiveATC Mobile
(Mobile browser)

ATC Audio Archives
Interesting Recordings

LiveATC Forums


Home Page
About LiveATC.net
Make a Donation
Terms of Use
Privacy Policy

Canadian Air Freqs

AIRMETs/SIGMETs

FAA Airport Status
Nat'l Airspace Status
Arrival Demand Charts


Server Software By:
Icecast.org
Liquidsoap